N737M YSSY-YMML

Flight info

Callsign N737M
Flight time 1h 8m
Altitude 36000
Route WOL H65 LEECE Q29 ML
Aircraft B738/M-SCDE2E3FGHIJ4J5J7M1M3P2RWXYZ/LB1D1

Departure

Time 2026-05-01 09:21
Airport Sydney Kingsford Smith International Airport (YSSY)

Arrival

Time 2026-05-01 10:29
Airport Melbourne Airport (YMML)
Time Latitude Longitude Altitude Speed Heading
2026-05-01 08:41 -33.93589 151.18126 29 ft 0 kts 77°
2026-05-01 08:59 -33.93591 151.18104 29 ft 4 kts 95°
2026-05-01 08:59 -33.93583 151.18076 29 ft 4 kts 134°
2026-05-01 08:59 -33.93562 151.18061 29 ft 4 kts 180°
2026-05-01 08:59 -33.93555 151.18061 29 ft 0 kts 188°
2026-05-01 09:09 -33.93571 151.18059 35 ft 9 kts 188°
2026-05-01 09:09 -33.93675 151.18053 29 ft 16 kts 174°
2026-05-01 09:10 -33.93769 151.18043 29 ft 14 kts 226°
2026-05-01 09:10 -33.93798 151.17954 28 ft 0 kts 253°
2026-05-01 09:10 -33.93799 151.17950 29 ft 2 kts 253°
2026-05-01 09:10 -33.93815 151.17883 29 ft 13 kts 253°
2026-05-01 09:11 -33.93860 151.17780 29 ft 14 kts 205°
2026-05-01 09:11 -33.93954 151.17793 28 ft 14 kts 167°
2026-05-01 09:11 -33.94054 151.17820 28 ft 14 kts 168°
2026-05-01 09:11 -33.94149 151.17844 29 ft 14 kts 168°
2026-05-01 09:12 -33.94242 151.17867 29 ft 13 kts 168°
2026-05-01 09:12 -33.94330 151.17890 29 ft 13 kts 167°
2026-05-01 09:12 -33.94423 151.17912 29 ft 15 kts 178°
2026-05-01 09:12 -33.94525 151.17884 29 ft 15 kts 175°
2026-05-01 09:13 -33.94631 151.17910 29 ft 15 kts 168°
2026-05-01 09:13 -33.94735 151.17936 29 ft 15 kts 168°
2026-05-01 09:13 -33.94840 151.17962 29 ft 15 kts 168°
2026-05-01 09:13 -33.94941 151.17985 29 ft 15 kts 167°
2026-05-01 09:14 -33.95039 151.18016 29 ft 14 kts 166°
2026-05-01 09:14 -33.95100 151.18096 29 ft 14 kts 90°
2026-05-01 09:14 -33.95079 151.18210 29 ft 14 kts 79°
2026-05-01 09:14 -33.95062 151.18318 28 ft 13 kts 78°
2026-05-01 09:15 -33.95044 151.18415 29 ft 6 kts 76°
2026-05-01 09:15 -33.95042 151.18466 29 ft 7 kts 108°
2026-05-01 09:15 -33.95114 151.18550 29 ft 22 kts 141°
2026-05-01 09:15 -33.95235 151.18671 29 ft 23 kts 145°
2026-05-01 09:16 -33.95379 151.18736 29 ft 22 kts 167°
2026-05-01 09:16 -33.95526 151.18775 29 ft 21 kts 167°
2026-05-01 09:16 -33.95669 151.18811 29 ft 21 kts 168°
2026-05-01 09:17 -33.95943 151.18879 29 ft 19 kts 168°
2026-05-01 09:17 -33.96072 151.18915 29 ft 19 kts 166°
2026-05-01 09:17 -33.96319 151.18979 29 ft 18 kts 168°
2026-05-01 09:18 -33.96437 151.19010 29 ft 17 kts 168°
2026-05-01 09:18 -33.96658 151.19066 29 ft 16 kts 168°
2026-05-01 09:19 -33.96866 151.19077 29 ft 14 kts 168°
2026-05-01 09:19 -33.96964 151.19102 29 ft 15 kts 168°
2026-05-01 09:19 -33.97059 151.19127 29 ft 13 kts 168°
2026-05-01 09:20 -33.97101 151.19317 27 ft 17 kts 68°
2026-05-01 09:20 -33.96768 151.19296 22 ft 74 kts 348°
2026-05-01 09:21 -33.94819 151.18800 779 ft 176 kts 352°
2026-05-01 09:21 -33.93675 151.18909 2007 ft 166 kts 37°
2026-05-01 09:21 -33.93181 151.21621 3953 ft 180 kts 99°
2026-05-01 09:22 -33.93987 151.24656 5674 ft 208 kts 84°
2026-05-01 09:22 -33.93797 151.28666 6614 ft 265 kts 85°
2026-05-01 09:23 -33.93714 151.30915 7708 ft 271 kts 86°
2026-05-01 09:23 -33.93595 151.35294 10847 ft 250 kts 86°
2026-05-01 09:24 -33.93475 151.39300 13401 ft 235 kts 86°
2026-05-01 09:24 -33.93407 151.41286 14312 ft 241 kts 86°
2026-05-01 09:24 -33.94855 151.45176 15043 ft 301 kts 144°
2026-05-01 09:25 -33.99295 151.45767 15555 ft 360 kts 198°
2026-05-01 09:25 -34.03573 151.42508 17153 ft 371 kts 225°
2026-05-01 09:26 -34.05364 151.40235 17955 ft 376 kts 227°
2026-05-01 09:26 -34.08934 151.35502 19405 ft 383 kts 227°
2026-05-01 09:26 -34.10768 151.33160 20113 ft 386 kts 226°
2026-05-01 09:27 -34.14571 151.28488 21350 ft 394 kts 226°
2026-05-01 09:27 -34.16519 151.26149 21961 ft 396 kts 226°
2026-05-01 09:27 -34.18484 151.23802 22556 ft 399 kts 226°
2026-05-01 09:28 -34.19801 151.22233 22941 ft 401 kts 226°
2026-05-01 09:28 -34.21791 151.19863 23516 ft 404 kts 226°
2026-05-01 09:28 -34.23800 151.17471 24044 ft 407 kts 226°
2026-05-01 09:28 -34.25848 151.15029 24476 ft 409 kts 226°
2026-05-01 09:29 -34.29901 151.10191 25297 ft 415 kts 226°
2026-05-01 09:29 -34.31961 151.07729 25709 ft 417 kts 226°
2026-05-01 09:30 -34.36136 151.02732 26487 ft 422 kts 226°
2026-05-01 09:30 -34.38203 151.00256 26851 ft 424 kts 226°
2026-05-01 09:30 -34.42419 150.95198 27554 ft 429 kts 226°
2026-05-01 09:31 -34.44545 150.92645 27879 ft 431 kts 226°
2026-05-01 09:31 -34.46680 150.90079 28196 ft 434 kts 226°
2026-05-01 09:31 -34.50983 150.84901 28795 ft 438 kts 226°
2026-05-01 09:32 -34.53151 150.82290 29084 ft 440 kts 226°
2026-05-01 09:32 -34.57322 150.76828 29615 ft 443 kts 234°
2026-05-01 09:32 -34.59157 150.73823 29885 ft 444 kts 236°
2026-05-01 09:33 -34.60962 150.70764 30138 ft 446 kts 236°
2026-05-01 09:33 -34.62762 150.67695 30394 ft 447 kts 236°
2026-05-01 09:33 -34.66380 150.61574 31047 ft 444 kts 236°
2026-05-01 09:34 -34.68192 150.58539 31387 ft 442 kts 236°
2026-05-01 09:34 -34.70000 150.55522 31664 ft 442 kts 236°
2026-05-01 09:34 -34.73618 150.49492 32239 ft 440 kts 236°
2026-05-01 09:35 -34.75419 150.46487 32555 ft 439 kts 236°
2026-05-01 09:35 -34.79003 150.40502 33128 ft 437 kts 236°
2026-05-01 09:35 -34.80788 150.37517 33413 ft 436 kts 236°
2026-05-01 09:36 -34.82566 150.34538 33717 ft 434 kts 236°
2026-05-01 09:36 -34.84339 150.31567 34007 ft 433 kts 236°
2026-05-01 09:36 -34.86105 150.28605 34283 ft 432 kts 236°
2026-05-01 09:36 -34.87864 150.25650 34546 ft 431 kts 236°
2026-05-01 09:37 -34.89622 150.22696 34796 ft 429 kts 236°
2026-05-01 09:37 -34.93113 150.16824 35289 ft 427 kts 236°
2026-05-01 09:37 -34.94851 150.13896 35518 ft 426 kts 236°
2026-05-01 09:38 -34.98307 150.08065 35970 ft 424 kts 236°
2026-05-01 09:38 -35.00031 150.05154 36197 ft 422 kts 236°
2026-05-01 09:38 -35.01748 150.02252 36384 ft 422 kts 236°
2026-05-01 09:39 -35.05200 149.96411 36383 ft 423 kts 236°
2026-05-01 09:39 -35.08622 149.90613 36383 ft 419 kts 236°
2026-05-01 09:40 -35.13706 149.81982 36387 ft 416 kts 236°
2026-05-01 09:41 -35.17081 149.76237 36386 ft 416 kts 236°
2026-05-01 09:41 -35.22143 149.67603 36387 ft 417 kts 236°
2026-05-01 09:42 -35.25522 149.61829 36388 ft 418 kts 236°
2026-05-01 09:43 -35.32274 149.50260 36384 ft 420 kts 236°
2026-05-01 09:43 -35.35668 149.44432 36382 ft 421 kts 237°
2026-05-01 09:44 -35.40762 149.35666 36378 ft 421 kts 237°
2026-05-01 09:45 -35.44154 149.29815 36379 ft 421 kts 237°
2026-05-01 09:45 -35.49233 149.21038 36378 ft 420 kts 237°
2026-05-01 09:46 -35.52610 149.15191 36377 ft 420 kts 237°
2026-05-01 09:46 -35.55978 149.09347 36378 ft 419 kts 237°
2026-05-01 09:47 -35.59338 149.03509 36378 ft 418 kts 237°
2026-05-01 09:47 -35.62688 148.97677 36393 ft 417 kts 237°
2026-05-01 09:48 -35.66028 148.91854 36383 ft 417 kts 237°
2026-05-01 09:48 -35.69365 148.86025 36397 ft 416 kts 237°
2026-05-01 09:49 -35.72695 148.80200 36393 ft 416 kts 237°
2026-05-01 09:49 -35.76023 148.74368 36401 ft 416 kts 237°
2026-05-01 09:50 -35.79349 148.68529 36391 ft 417 kts 237°
2026-05-01 09:50 -35.82677 148.62676 36392 ft 417 kts 237°
2026-05-01 09:51 -35.86000 148.56824 36385 ft 417 kts 237°
2026-05-01 09:51 -35.89323 148.50959 36386 ft 417 kts 237°
2026-05-01 09:52 -35.92638 148.45079 36387 ft 417 kts 237°
2026-05-01 09:52 -35.95945 148.39200 36382 ft 417 kts 237°
2026-05-01 09:53 -35.99247 148.33319 36374 ft 417 kts 237°
2026-05-01 09:53 -36.02544 148.27440 36369 ft 417 kts 237°
2026-05-01 09:54 -36.05844 148.21546 36363 ft 416 kts 237°
2026-05-01 09:54 -36.09130 148.15665 36357 ft 416 kts 237°
2026-05-01 09:55 -36.12422 148.09768 36347 ft 416 kts 238°
2026-05-01 09:55 -36.15712 148.03886 36349 ft 416 kts 237°
2026-05-01 09:56 -36.19000 147.98003 36342 ft 415 kts 238°
2026-05-01 09:56 -36.22278 147.92123 36337 ft 414 kts 238°
2026-05-01 09:57 -36.25548 147.86247 36343 ft 414 kts 238°
2026-05-01 09:57 -36.28811 147.80373 36339 ft 414 kts 238°
2026-05-01 09:58 -36.32044 147.74546 36338 ft 413 kts 238°
2026-05-01 09:58 -36.35290 147.68678 36336 ft 412 kts 238°
2026-05-01 09:59 -36.38529 147.62804 36332 ft 412 kts 238°
2026-05-01 09:59 -36.41786 147.56885 36334 ft 412 kts 238°
2026-05-01 10:00 -36.45021 147.50998 36330 ft 412 kts 238°
2026-05-01 10:00 -36.48247 147.45117 36334 ft 412 kts 238°
2026-05-01 10:01 -36.51467 147.39238 36338 ft 411 kts 238°
2026-05-01 10:01 -36.54683 147.33355 36329 ft 411 kts 238°
2026-05-01 10:02 -36.57867 147.27521 36332 ft 410 kts 238°
2026-05-01 10:02 -36.61067 147.21645 36336 ft 410 kts 238°
2026-05-01 10:03 -36.64264 147.15767 36335 ft 410 kts 238°
2026-05-01 10:03 -36.67469 147.09862 35912 ft 414 kts 238°
2026-05-01 10:04 -36.69074 147.06902 35382 ft 412 kts 239°
2026-05-01 10:04 -36.70677 147.03945 34825 ft 411 kts 239°
2026-05-01 10:04 -36.72265 147.01013 34550 ft 404 kts 239°
2026-05-01 10:04 -36.73829 146.98124 34080 ft 401 kts 239°
2026-05-01 10:05 -36.75379 146.95257 33630 ft 397 kts 239°
2026-05-01 10:05 -36.76915 146.92412 33193 ft 393 kts 238°
2026-05-01 10:05 -36.78434 146.89596 32766 ft 390 kts 238°
2026-05-01 10:05 -36.79944 146.86793 32340 ft 387 kts 238°
2026-05-01 10:06 -36.81439 146.84016 31921 ft 385 kts 238°
2026-05-01 10:06 -36.82925 146.81253 31501 ft 382 kts 238°
2026-05-01 10:06 -36.84403 146.78503 31104 ft 380 kts 238°
2026-05-01 10:06 -36.85875 146.75764 30685 ft 379 kts 238°
2026-05-01 10:07 -36.87338 146.73036 30244 ft 378 kts 238°
2026-05-01 10:07 -36.88797 146.70317 29769 ft 376 kts 238°
2026-05-01 10:07 -36.90250 146.67607 29315 ft 374 kts 238°
2026-05-01 10:07 -36.91692 146.64914 28875 ft 372 kts 238°
2026-05-01 10:08 -36.94548 146.59573 28015 ft 367 kts 239°
2026-05-01 10:08 -36.95963 146.56925 27596 ft 366 kts 239°
2026-05-01 10:08 -36.97371 146.54286 27180 ft 364 kts 239°
2026-05-01 10:09 -36.98775 146.51653 26761 ft 363 kts 239°
2026-05-01 10:09 -37.00172 146.49031 26347 ft 362 kts 239°
2026-05-01 10:09 -37.01566 146.46411 25906 ft 362 kts 239°
2026-05-01 10:09 -37.02959 146.43793 25484 ft 360 kts 240°
2026-05-01 10:10 -37.04332 146.41212 25064 ft 353 kts 240°
2026-05-01 10:10 -37.05696 146.38644 24646 ft 355 kts 240°
2026-05-01 10:10 -37.08459 146.33433 23617 ft 366 kts 240°
2026-05-01 10:11 -37.09869 146.30771 23113 ft 367 kts 240°
2026-05-01 10:11 -37.10803 146.29010 22845 ft 365 kts 240°
2026-05-01 10:11 -37.12200 146.26374 22457 ft 362 kts 240°
2026-05-01 10:11 -37.14049 146.22882 21935 ft 358 kts 240°
2026-05-01 10:12 -37.14959 146.21161 21670 ft 356 kts 240°
2026-05-01 10:12 -37.16319 146.18587 21237 ft 351 kts 240°
2026-05-01 10:12 -37.18990 146.13525 19964 ft 347 kts 240°
2026-05-01 10:13 -37.20315 146.11007 19350 ft 344 kts 240°
2026-05-01 10:13 -37.21629 146.08511 18774 ft 341 kts 240°
2026-05-01 10:13 -37.22924 146.06051 18304 ft 334 kts 240°
2026-05-01 10:14 -37.25416 146.01311 17507 ft 319 kts 240°
2026-05-01 10:14 -37.26664 145.98925 17177 ft 340 kts 240°
2026-05-01 10:14 -37.28009 145.96350 16782 ft 362 kts 240°
2026-05-01 10:14 -37.29405 145.93688 16356 ft 367 kts 239°
2026-05-01 10:15 -37.30806 145.91020 15929 ft 365 kts 239°
2026-05-01 10:15 -37.32198 145.88373 15531 ft 362 kts 239°
2026-05-01 10:15 -37.33581 145.85743 15124 ft 360 kts 239°
2026-05-01 10:15 -37.34957 145.83123 14717 ft 358 kts 239°
2026-05-01 10:16 -37.36324 145.80517 14314 ft 357 kts 239°
2026-05-01 10:16 -37.37688 145.77914 13871 ft 357 kts 239°
2026-05-01 10:16 -37.40380 145.72770 13006 ft 347 kts 239°
2026-05-01 10:17 -37.41697 145.70252 12605 ft 342 kts 239°
2026-05-01 10:17 -37.44286 145.65294 11813 ft 336 kts 239°
2026-05-01 10:17 -37.45564 145.62846 11427 ft 334 kts 239°
2026-05-01 10:18 -37.48110 145.57998 10669 ft 331 kts 239°
2026-05-01 10:18 -37.49375 145.55589 10299 ft 329 kts 239°
2026-05-01 10:18 -37.50623 145.53212 10135 ft 323 kts 239°
2026-05-01 10:19 -37.51857 145.50857 9868 ft 325 kts 240°
2026-05-01 10:19 -37.53110 145.48461 9503 ft 329 kts 239°
2026-05-01 10:19 -37.54372 145.46048 9132 ft 330 kts 239°
2026-05-01 10:20 -37.56893 145.41225 8414 ft 330 kts 240°
2026-05-01 10:20 -37.57185 145.40665 8327 ft 329 kts 240°
2026-05-01 10:20 -37.58352 145.38431 7980 ft 325 kts 240°
2026-05-01 10:20 -37.59582 145.36073 7605 ft 320 kts 240°
2026-05-01 10:21 -37.60779 145.33776 7276 ft 315 kts 240°
2026-05-01 10:21 -37.63171 145.29181 6587 ft 312 kts 240°
2026-05-01 10:21 -37.64360 145.26895 6219 ft 311 kts 240°
2026-05-01 10:22 -37.66711 145.22382 5767 ft 300 kts 240°
2026-05-01 10:22 -37.68931 145.18122 5159 ft 279 kts 240°
2026-05-01 10:23 -37.69976 145.16112 4849 ft 269 kts 241°
2026-05-01 10:23 -37.71931 145.12352 4546 ft 242 kts 242°
2026-05-01 10:23 -37.72538 145.10470 4454 ft 222 kts 267°
2026-05-01 10:24 -37.72692 145.06544 4307 ft 230 kts 274°
2026-05-01 10:24 -37.72793 145.02619 3521 ft 226 kts 273°
2026-05-01 10:25 -37.72928 144.98765 2729 ft 200 kts 273°
2026-05-01 10:25 -37.73096 144.95554 2211 ft 168 kts 272°
2026-05-01 10:26 -37.73200 144.94135 2048 ft 158 kts 274°
2026-05-01 10:26 -37.73242 144.92744 1983 ft 163 kts 277°
2026-05-01 10:26 -37.73239 144.89735 1983 ft 175 kts 279°
2026-05-01 10:27 -37.73119 144.86926 1511 ft 152 kts 287°
2026-05-01 10:27 -37.72091 144.84926 1108 ft 134 kts 332°
2026-05-01 10:28 -37.71229 144.84523 963 ft 133 kts 353°
2026-05-01 10:28 -37.69371 144.84224 577 ft 133 kts 353°
2026-05-01 10:28 -37.68475 144.84067 390 ft 130 kts 356°
2026-05-01 10:29 -37.67180 144.83839 380 ft 43 kts 353°
2026-05-01 10:29 -37.66934 144.83868 387 ft 22 kts 18°
2026-05-01 10:30 -37.66734 144.84002 393 ft 15 kts 59°
2026-05-01 10:30 -37.66698 144.84241 395 ft 13 kts 82°
2026-05-01 10:31 -37.66686 144.84330 394 ft 9 kts 80°
2026-05-01 10:31 -37.66666 144.84480 398 ft 6 kts 66°
2026-05-01 10:32 -37.66601 144.84492 400 ft 4 kts 348°
2026-05-01 10:32 -37.66585 144.84488 401 ft 2 kts 350°
2026-05-01 10:32 -37.66570 144.84485 401 ft 0 kts 351°